{"data":{"norad_id":67545,"intl_designator":"2026-014P","name":"STARLINK-36583","alt_names":[],"object_type":"PAYLOAD","status":"ACTIVE","operator":null,"country":"US","launch_date":"2026-01-22","launch_site_code":"AFWTR","launch_vehicle":null,"mission":null,"orbit_class":"UNKNOWN","rcs_meters":null,"size_class":null,"mass_kg":null,"dimensions":null,"purposes":["comms"],"wikipedia_slug":null,"has_3d_model":false,"image_url":null,"decayed_at":null,"tle_current":{"epoch":"2026-05-24T16:29:28.667904Z","epoch_age_seconds":95458,"freshness":"FRESH","line1":"1 67545U 26014P   26144.68713736  .00024390  00000+0  75525-3 0  9992","line2":"2 67545  97.2855  31.7905 0001581  97.7918 262.3504 15.33450222 20434","mean_motion":15.33450222,"eccentricity":0.0001581,"inclination_deg":97.2855,"raan_deg":31.7905,"arg_perigee_deg":97.7918,"mean_anomaly_deg":262.3504,"bstar":0.00075525,"rev_number":2043,"period_min":93.905884869343,"perigee_km":464.44565414502,"apogee_km":466.6096209034,"semimajor_km":6843.6646375242,"source":"CELESTRAK","updated_at":"2026-05-25T13:38:21.609357Z"}}}